sat.trackr.live / text

‹ back to catalog

MUOS-5

NORAD 41622 · 2016-041A

PAYLOAD ACTIVE UNKNOWN

§ Identity

Operator
Country
US
Launch date
2016-06-24
Launch site
AFETR
Launch vehicle
Mass (kg)
RCS (m²)
14.25

Purposes: comms

External: N2YO · Heavens-Above · Gunter

§ Orbital elements

Epoch: 2026-05-25T03:14:25.708128Z

Period
1,436.15 min
Inclination
2.2517°
Eccentricity
0.0195937
Mean motion
1.00268288 rev/d
Perigee alt
34,961.4 km
Apogee alt
36,613.8 km
Semi-major
42,165.7 km
B*
0.0000e+0
RAAN
301.2534°
Arg perigee
261.1252°
Mean anomaly
343.8072°
Rev number
3,685

§ Raw data

MUOS-51 41622U 16041A   26145.13501977 -.00000155  00000+0  00000+0 0  99982 41622   2.2517 301.2534 0195937 261.1252 343.8072  1.00268288 36859

JSON: /api/v1/satellites/41622 · /tle

For live sub-satellite position, see the globe view (requires WebGL).

§ Visibility from observer

Set your observer location to see the next 7 days of passes ≥ 10°. The values pass through the URL so the page stays shareable.

No JS? Fill the form by hand. The geolocation button needs JavaScript.